Regional Weather Roundup
Issued by NWS Northern Indiana

Home | Current Version | Previous Version | Graphics & Text | Print | Product List | Glossary On
Versions: 1 2 3 4 5 6 7 8 9 10 11 12 13 14 15 16 17 18 19 20 21 22 23 24 25 26 27 28 29 30 31 32 33 34 35 36 37 38 39 40 41 42 43 44 45 46 47 48 49 50
000
ASUS43 KIWX 051010
RWRIWX

KIWX WEATHER ROUNDUP
NATIONAL WEATHER SERVICE NORTHERN INDIANA
500 AM EST THU MAR 05 2015

NOTE: "FAIR" INDICATES FEW OR NO CLOUDS BELOW 12,000 FEET WITH NO
SIGNIFICANT WEATHER AND/OR OBSTRUCTIONS TO VISIBILITY.

* THESE STATIONS ARE NOT UNDER NWS QUALITY CONTROL. THEY ALSO MAY NOT
  REPORT WEATHER SUCH AS PRECIPITATION OR FOG.

INZ001>027-051100-
NORTHERN INDIANA

CITY           SKY/WX    TMP DP  RH WIND       PRES   REMARKS
VALPARAISO     CLEAR     12   1  61 NW6       30.32R WCI   3
MICHIGAN CITY* FLURRIES  18   5  57 CALM      30.34S
LAPORTE*       LGT SNOW  11   4  72 CALM      30.33R
KNOX*            N/A      7 -11  43 NW5       30.32S WCI  -2
SOUTH BEND     CLOUDY    13   6  74 NE3       30.33R
GOSHEN         CLOUDY    11   1  64 NE5       30.31R WCI   3
MONTICELLO*    PTCLDY     5  -1  75 NW5       30.32S WCI  -4
LOGANSPORT*    MOCLDY    12   3  67 NW6       30.32S WCI   3
ROCHESTER*     MOCLDY    16   7  67 CALM      30.32S
WARSAW*        PTCLDY    12   3  67 CALM      30.31R
ANGOLA*        CLEAR      3  -2  78 CALM      30.28S
FORT WAYNE     MOCLDY    15   3  59 N10       30.31R WCI   2
HUNTINGTON*    MOCLDY    15   1  54 NE7       30.30R WCI   5
PERU/GRISSOM   MOCLDY    14   5  66 NW8       30.29R WCI   3
MARION*        MOCLDY    16   5  62 N6        30.29S WCI   8

$$
INZ028>050-051100-
CENTRAL INDIANA

CITY           SKY/WX    TMP DP  RH WIND       PRES   REMARKS
LAFAYETTE      PTCLDY     9   0  67 CALM      30.35R
KOKOMO*          N/A    N/A N/A N/A MISG        N/A
MUNCIE*        CLOUDY    18   9  68 NE8       30.28R WCI   8
INDIANAPOLIS   CLOUDY    17   6  62 N12       30.31R WCI   4

$$
MIZ043>046-050>051-056>058-064>065-071>073-077>080-051100-
SOUTHWEST LOWER MICHIGAN

CITY           SKY/WX    TMP DP  RH WIND       PRES   REMARKS
BATTLE CREEK   PTCLDY     5  -5  63 CALM      30.30R
BENTON HARBOR  CLOUDY    13   3  64 CALM      30.33R
COLDWATER*     CLEAR      2  -6  68 CALM      30.30R
HILLSDALE*     FAIR       8  -4  59 CALM      30.27R
HOLLAND        MOCLDY    10   3  73 NE5       30.33S WCI   2
GRAND RAPIDS   PTCLDY     5  -2  72 NE5       30.32R WCI  -4
KALAMAZOO      PTCLDY     3  -5  69 CALM      30.30S
STURGIS*       PTCLDY     3  -2  78 CALM      30.29S
THREE RIVERS*  MOCLDY     2  -3  77 CALM      30.31S

$$
OHZ001>008-015>018-024>025-051100-
NORTHWEST OHIO

CITY           SKY/WX    TMP DP  RH WIND       PRES   REMARKS
WAUSEON*       FAIR      12   0  57 N5        30.31R WCI   4
DEFIANCE       MOCLDY    14   0  53 N7        30.32S WCI   4
FINDLAY        CLOUDY    16   1  51 N14       30.26S WCI   2
TOLEDO EXPRESS MOCLDY    13   1  59 N7        30.31R WCI   3
TOLEDO METCALF MOCLDY    15   0  51 N9        30.30S WCI   3
LIMA           CLOUDY    16   2  54 N12       30.26S WCI   3

$$
AND FOR LAKE MICHIGAN COASTAL AND OPEN LAKE BUOY OBSERVATIONS

STATION/POSITION TEMP    WIND        PRES    VSBY  WAVE
                 AIR SEA DIR/SP/G                  HT/PER
                 (F)     (DEG/KT/KT) (MB)    (MI)  (FT/S)
CALUMET HARBOR                       1026.4S
MICHIGAN CITY     16     320/ 12/ 14   N/A
SAINT JOSEPH      15     330/ 10/ 12 1027.4S

$$
&&


USA.gov is the U.S. government's official web portal to all federal, state and local government web resources and services.